TIANMU-1 22

Last updated on Fri Dec 19 2025 00:02:26 GMT+0000 (Coordinated Universal Time)

1 58663U 23208D 25352.57394940 .00007163 00000+0 26734-3 0 9992 2 58663 97.4387 103.6563 0002710 255.6858 104.4080 15.27701375109725
UTC large
Height (km)
Speed (km/s)
/
Latitude / Longitude
Inclination (degrees)
Orbital Period (minutes)
Azimuth
Elevation
Range (km)
Doppler Factor

Next 0 passes for location: London (51.5072 / 0.1276)

Sorry there are no passes over London.